Hourly Data Report for October 24, 2019

SHEARWATER RCS
NOVA SCOTIA
Current Station Operator: ECCC - MSC

44°37'47.000" N
63°30'48.000" W
24.00 m
8205092
71264
AAW

Download Data

Hourly Data (October 2019)
Hourly Data Report for October 24, 2019
TIME
LST
Temp Definition
°C
Dew Point Definition
°C
Rel Hum Definition
%
Precip. Amount Definition
mm

Wind Dir Definition
10's deg

Wind Spd Definition
km/h
Visibility Definition
km
Stn Press Definition
kPa
Hmdx Definition


Wind Chill Definition


Weather Definition


00:00 13.1 12.3 95 0.0 26 12   100.73     LegendNANA
01:00 11.2 9.5 89 0.0 29 16   100.87     LegendNANA
02:00 10.2 8.0 86 0.0 29 13   101.00     LegendNANA
03:00 9.4 7.0 85 0.0 28 10   101.15     LegendNANA
04:00 9.1 6.8 86 0.0 28 13   101.26     LegendNANA
05:00 8.8 7.0 88 0.0 28 10   101.43     LegendNANA
06:00 8.8 7.0 89 0.0 28 11   101.50     LegendNANA
07:00 8.3 6.7 90 0.0 27 7   101.62     LegendNANA
08:00 9.8 7.5 85 0.0 27 6   101.73     LegendNANA
09:00 11.5 7.1 74 0.0 28 10   101.79     LegendNANA
10:00 12.6 6.6 67 0.0 30 12   101.83     LegendNANA
11:00 13.8 6.0 59 0.0 31 16   101.82     LegendNANA
12:00 14.9 5.4 53 0.0 28 11   101.81     LegendNANA
13:00 15.7 4.6 48 0.0 29 12   101.77     LegendNANA
14:00 16.2 4.6 46 0.0 28 9   101.77     LegendNANA
15:00 15.7 3.0 43 0.0 25 15   101.81     LegendNANA
16:00 15.3 2.2 41 0.0 26 12   101.88     LegendNANA
17:00 13.9 3.3 49 0.0 25 7   101.93     LegendNANA
18:00 10.8 4.4 64 0.0 21 2   101.97     LegendNANA
19:00 10.2 4.6 68 0.0 25 4   101.95     LegendNANA
20:00 8.8 4.0 72 0.0 18 3   101.93     LegendNANA
21:00 9.6 4.7 72 0.0 25 6   102.02     LegendNANA
22:00 9.7 4.6 71 0.0 25 7   102.07     LegendNANA
23:00 9.2 4.6 73 0.0 22 9   102.05     LegendNANA

Notes on Data Quality.

Legend

  • E = Estimated
  • M = Missing
  • NA = Not Available*
  • [empty] = Indicates an unobserved value
Date modified: